ATLAS CENTAUR 2 1 00694U 63047A 26071.30462157 .00002098 00000+0 24645-3 0 9995 2 00694 30.3512 181.0281 0547680 103.3290 262.8946 14.12077676131995 THOR AGENA D R/B 1 00733U 64002A 26071.03400275 .00000262 00000+0 11070-3 0 9993 2 00733 99.1225 84.4992 0031996 251.0942 108.6771 14.34021690238632 SL-3 R/B 1 00877U 64053B 26071.08709664 .00000256 00000+0 73756-4 0 9990 2 00877 65.0784 324.2091 0079843 291.4689 67.7910 14.61370331267144 SL-8 R/B 1 02802U 67045B 26071.20470159 .00000454 00000+0 13320-3 0 9992 2 02802 74.0141 343.3930 0064348 349.0512 10.9240 14.45625540 89385 SL-8 R/B 1 03230U 68040B 26071.10548969 .00002662 00000+0 19831-3 0 9994 2 03230 74.0315 308.7582 0023780 131.5684 228.7549 15.03274774 90377 OAO 2 1 03597U 68110A 26070.85269798 .00000285 00000+0 81768-4 0 9997 2 03597 34.9924 253.1465 0005993 221.2353 138.7885 14.47309203 19415 ISIS 1 1 03669U 69009A 26071.28652619 .00000173 00000+0 10671-3 0 9991 2 03669 88.4538 155.0254 1707826 83.9236 295.2848 11.30415280348824 SERT 2 1 04327U 70009A 26071.29000984 .00000015 00000+0 76573-4 0 9997 2 04327 99.2759 14.2413 0005139 149.4935 341.1361 13.58730157780247 SL-3 R/B 1 05118U 71028B 26071.28407143 .00046138 00000+0 53745-3 0 9996 2 05118 81.2358 48.8243 0013244 274.0554 85.9185 15.61370365989070 ASTEX 1 1 05560U 71089A 26071.23636536 .00000601 00000+0 15263-3 0 9997 2 05560 92.7117 152.5831 0017778 78.3795 281.9406 14.50772952862670 SL-8 R/B 1 05730U 71119B 26071.30134328 .00012604 00000+0 65616-3 0 9993 2 05730 73.8865 170.8361 0548397 136.9323 227.6135 14.37931739655866 OAO 3 (COPERNICUS) 1 06153U 72065A 26071.28639307 .00000454 00000+0 97451-4 0 9991 2 06153 35.0054 282.5219 0006692 188.5676 338.0292 14.60000714846577 ATLAS CENTAUR R/B 1 06155U 72065B 26070.92320156 .00001417 00000+0 19621-3 0 9994 2 06155 35.0013 292.6651 0033276 27.7558 332.4910 14.77693404841591 SL-8 R/B 1 08459U 75112B 26071.28545431 .00000312 00000+0 11110-3 0 9992 2 08459 74.0632 14.1370 0014425 106.2723 254.0019 14.38205493632240 SL-3 R/B 1 10114U 77057B 26071.24403037 .00014688 00000+0 30711-3 0 9993 2 10114 97.5780 243.2771 0006173 274.3370 85.7173 15.45574205668722 SEASAT 1 1 10967U 78064A 26071.12465845 .00000256 00000+0 10995-3 0 9998 2 10967 108.0105 130.6094 0002363 285.2592 74.8292 14.46162302506866 SL-14 R/B 1 11267U 79011B 26071.12913990 .00000606 00000+0 57271-4 0 9992 2 11267 82.5206 94.2555 0017289 53.0344 307.2456 14.91911165529144 SL-8 R/B 1 11574U 79089B 26071.31180316 .00000325 00000+0 10618-3 0 9998 2 11574 74.0666 86.1890 0017127 258.6308 101.2924 14.42352550436486 SL-14 R/B 1 11672U 80005B 26071.14376856 .00000663 00000+0 64462-4 0 9996 2 11672 82.5140 304.9085 0016378 150.4007 209.8143 14.90933590476850 SL-8 R/B 1 12139U 81003B 26071.05371932 .00019005 00000+0 48626-3 0 9997 2 12139 82.9385 287.8378 0261904 170.4101 190.2279 15.11073422315030 SL-3 R/B 1 12465U 81046B 26071.25028325 .00012391 00000+0 28736-3 0 9994 2 12465 81.2299 286.6692 0019354 13.5245 346.6512 15.42067424438829 SL-3 R/B 1 12904U 81103B 26071.27153981 .00006770 00000+0 30002-3 0 9998 2 12904 81.1586 210.4033 0012319 277.5350 82.4482 15.21411332973623 SL-3 R/B 1 13068U 82013B 26071.27853417 .00004745 00000+0 20502-3 0 9996 2 13068 81.1758 157.7369 0022730 168.7893 191.3850 15.22046228404742 SL-3 R/B 1 13154U 82039B 26071.24100807 .00003176 00000+0 19165-3 0 9995 2 13154 81.1579 213.0205 0029617 316.1618 43.7256 15.10098643382020 SL-3 R/B 1 13403U 82079B 26071.29176721 .00007413 00000+0 29480-3 0 9998 2 13403 81.1476 190.0050 0025157 156.0042 204.2370 15.24843438378090 SL-14 R/B 1 13553U 82092B 26071.26892291 .00000544 00000+0 58418-4 0 9995 2 13553 82.5690 138.9872 0018889 294.3272 129.1818 14.86669232329315 SL-3 R/B 1 13819U 83010B 26071.28453220 .00018399 00000+0 36815-3 0 9991 2 13819 81.1061 359.0661 0017757 42.6261 317.6358 15.46460028358341 SL-3 R/B 1 14208U 83075B 26071.22376057 .00012457 00000+0 32794-3 0 9992 2 14208 97.6146 75.8970 0020362 216.2304 143.7563 15.38485174330547 COSMOS 1536 1 14699U 84013A 26071.14954389 .00006724 00000+0 27694-3 0 9993 2 14699 82.5429 105.4050 0012529 273.6666 86.3138 15.23862176272990 SL-14 R/B 1 14820U 84027B 26070.98261430 .00000572 00000+0 62610-4 0 9996 2 14820 82.5389 242.8615 0017186 330.0492 29.9739 14.85978988247979 SL-8 R/B 1 15483U 85006B 26070.96351259 .00000358 00000+0 12719-3 0 9993 2 15483 74.0432 256.9639 0018363 174.2338 295.6293 14.37784706154353 SL-12 R/B(2) 1 15772U 85042D 26071.30285633 .00000155 00000+0 91005-4 0 9996 2 15772 71.1063 82.2072 0033121 123.8396 327.4127 14.21983167114762 SL-14 R/B 1 15945U 85069B 26071.30328720 .00000689 00000+0 75042-4 0 9997 2 15945 82.5289 22.4756 0018710 178.9744 181.1515 14.86436837173220 SL-16 R/B 1 16182U 85097B 26071.31817400 -.00000142 00000+0 -47251-4 0 9998 2 16182 71.0023 135.0211 0009849 256.5609 171.4207 14.16598273 87608 SL-14 R/B 1 16496U 86006B 26071.01047511 .00000746 00000+0 76876-4 0 9995 2 16496 82.5236 257.5523 0075056 264.9426 94.3220 14.86818268149555 COSMOS 1743 1 16719U 86034A 26071.01749648 .00034559 00000+0 44742-3 0 9999 2 16719 82.5293 71.3874 0001486 269.8959 90.2126 15.58731417180610 SL-14 R/B 1 16792U 86046B 26071.29946215 .00000593 00000+0 65488-4 0 9994 2 16792 82.4782 77.7149 0022128 216.3300 143.6415 14.85593292126790 SL-14 R/B 1 16882U 86055B 26071.22811698 .00000507 00000+0 55590-4 0 9991 2 16882 82.5196 124.2882 0017968 327.8325 96.3037 14.85645237119741 AJISAI (EGS) 1 16908U 86061A 26071.28948778 -.00000098 00000+0 -31333-5 0 9990 2 16908 50.0081 85.3528 0011278 293.7322 154.3077 12.44515659468320 SL-14 R/B 1 17567U 87024B 26071.12991942 .00000502 00000+0 54415-4 0 9999 2 17567 82.5245 90.4695 0016734 251.1218 108.8185 14.86134375 88490 COSMOS 1833 1 17589U 87027A 26071.12554540 -.00000189 00000+0 -75332-4 0 9999 2 17589 70.9219 320.8998 0024150 211.1193 148.8499 14.13054205 10660 SL-16 R/B 1 17590U 87027B 26071.30391235 .00000027 00000+0 37204-4 0 9996 2 17590 70.9996 270.9859 0003257 137.4369 222.7008 14.17166440 15713 SL-14 R/B 1 17912U 87038B 26071.12614964 .00000495 00000+0 54537-4 0 9990 2 17912 82.4996 294.5124 0019868 152.6537 207.5730 14.85371680 79595 COSMOS 1844 1 17973U 87041A 26071.29956093 -.00000121 00000+0 -37886-4 0 9997 2 17973 70.9001 28.6699 0030162 13.9614 346.2335 14.14551736 3952 SL-14 R/B 1 18153U 87055B 26071.23734244 .00000653 00000+0 72357-4 0 9999 2 18153 82.5031 346.6311 0020950 9.5666 350.5944 14.85632925 70317 COSMOS 1867 1 18187U 87060A 26071.02614822 -.00000031 00000+0 26030-4 0 9996 2 18187 65.0109 300.1626 0014520 278.8175 81.1265 14.31503439 20273 SL-14 R/B 1 18749U 88001B 26071.30019065 .00000701 00000+0 78268-4 0 9998 2 18749 82.5156 192.9053 0016989 226.4975 133.4830 14.85531575 42412 COSMOS 1933 1 18958U 88020A 26070.96542221 .00005303 00000+0 25936-3 0 9993 2 18958 82.5104 248.6596 0004130 173.7359 186.3927 15.18007342 50570 SL-3 R/B 1 19046U 88032B 26071.23427417 .00006311 00000+0 29444-3 0 9993 2 19046 97.5195 54.4764 0024622 222.0952 137.8392 15.19942924 52495 SL-16 R/B 1 19120U 88039B 26071.30557510 .00000114 00000+0 76770-4 0 9999 2 19120 71.0137 63.0157 0022932 330.5781 29.4051 14.19615866958753 COSMOS 1953 1 19210U 88050A 26071.30963646 .00008844 00000+0 31630-3 0 9996 2 19210 82.5102 155.6127 0012542 114.4018 245.8532 15.28576123 38182 SL-8 R/B 1 19257U 88053B 26071.30163498 .00000298 00000+0 10515-3 0 9991 2 19257 74.0456 107.6515 0021469 286.5687 151.0905 14.38917564976978 COSMOS 1975 1 19573U 88093A 26071.14769814 .00006913 00000+0 25059-3 0 9991 2 19573 82.5182 115.2177 0012400 155.1171 205.0669 15.28107769 19784 SL-14 R/B 1 19574U 88093B 26071.29932079 .00000749 00000+0 83359-4 0 9992 2 19574 82.5310 39.5938 0021581 33.2673 83.1539 14.85660399 1400 SL-16 R/B 1 19650U 88102B 26071.30651569 .00000282 00000+0 16673-3 0 9998 2 19650 70.9999 145.9917 0014137 357.5135 2.5915 14.16153853927262 INTERCOSMOS 24 1 20261U 89080A 26071.10599846 .00000766 00000+0 22806-3 0 9993 2 20261 82.6022 102.8305 1186680 287.2065 60.2687 12.59561642667102 SL-14 R/B 1 20262U 89080C 26071.27650643 .00000660 00000+0 19364-3 0 9993 2 20262 82.5974 171.5263 1230648 178.8389 181.6078 12.50497375660479 DELTA 1 R/B 1 20323U 89089B 26071.17294727 .00000410 00000+0 10965-3 0 9997 2 20323 97.0704 278.2168 0070568 114.2803 246.5788 14.50665274896090 ARIANE 40 R/B 1 20443U 90005H 26071.17622715 .00000324 00000+0 11667-3 0 9996 2 20443 98.3078 131.7635 0010005 190.9929 169.1042 14.39872407893166 DELTA 2 R/B(1) 1 20453U 90008B 26071.32570836 .00063321 00000+0 73192-3 0 9990 2 20453 35.6034 157.5488 0084577 283.0537 76.0768 15.56355952926540 COSMOS 2058 1 20465U 90010A 26071.29648128 .00004828 00000+0 28453-3 0 9999 2 20465 82.4669 44.8592 0008956 335.9544 24.1267 15.11348167942630 SL-14 R/B 1 20466U 90010B 26071.04752635 .00000457 00000+0 52505-4 0 9992 2 20466 82.4986 265.1732 0018438 293.9836 65.9448 14.83570863928838 SL-14 R/B 1 20511U 90018B 26070.86510415 .00000590 00000+0 70923-4 0 9990 2 20511 82.5207 221.0560 0017653 85.4792 274.8438 14.82147386922900 HST 1 20580U 90037B 26071.22647860 .00008646 00000+0 28559-3 0 9990 2 20580 28.4723 22.6938 0001818 150.2149 209.8550 15.29528665773705 SL-16 R/B 1 20625U 90046B 26071.03002069 -.00000183 00000+0 -69834-4 0 9997 2 20625 70.9984 292.9996 0016246 296.4241 63.5214 14.15011596848720 COSMOS 2084 1 20663U 90055A 26071.04645392 .00002576 00000+0 19090-3 0 9996 2 20663 62.7917 327.5405 0016713 190.5750 169.5001 15.05666234936673 SL-6 R/B(2) 1 20666U 90055D 26070.89931024 .00002340 00000+0 18378-3 0 9998 2 20666 62.7824 246.3360 0025157 347.5743 12.4732 15.03606413938523 SL-8 R/B 1 20775U 90078B 26070.99460346 .00015814 00000+0 46583-3 0 9998 2 20775 82.9005 249.2375 0361733 6.2478 354.3067 14.89145616809649 SL-8 R/B 1 21088U 91006B 26071.31042272 .00000083 00000+0 67994-4 0 9991 2 21088 82.9465 168.0977 0022925 31.1742 22.6836 13.77494703764437 OKEAN-3 1 21397U 91039A 26071.20582760 .00004201 00000+0 29507-3 0 9992 2 21397 82.5197 334.4060 0013726 328.3821 31.6580 15.04827213865412 COSMOS 2151 1 21422U 91042A 26071.28478393 .00002266 00000+0 17929-3 0 9993 2 21422 82.4930 81.1722 0013902 55.8998 304.3543 15.00115055863584 SL-14 R/B 1 21423U 91042B 26070.91856584 .00000580 00000+0 70352-4 0 9992 2 21423 82.4929 218.0922 0015906 230.7794 129.2009 14.81832118853405 ERS-1 1 21574U 91050A 26071.06070590 .00000353 00000+0 12761-3 0 9997 2 21574 98.7879 89.3548 0031751 193.3487 166.6863 14.39451323816071 ARIANE 40 R/B 1 21610U 91050F 26071.10601735 .00000315 00000+0 10671-3 0 9990 2 21610 98.2007 123.2517 0004245 75.8736 284.2926 14.42895392819345 INTERCOSMOS 25 1 21819U 91086A 26071.13432388 .00001961 00000+0 37731-3 0 9993 2 21819 82.6045 308.5308 1486930 111.6672 264.9080 12.12007728496985 SL-8 R/B 1 21876U 92008B 26071.28938990 .00000013 00000+0 -28895-5 0 9998 2 21876 82.9222 265.8439 0035644 126.2922 46.1592 13.75969807709776 SL-8 R/B 1 21938U 92020B 26071.31133171 .00000066 00000+0 53130-4 0 9999 2 21938 82.9332 151.8153 0027624 291.1629 132.4204 13.75549842701492 USA 81 1 21949U 92023A 26071.24354049 .00000183 00000+0 60503-4 0 9997 2 21949 85.0080 129.9680 0002394 75.9061 284.2398 14.32368895 95154 COSMOS 2219 1 22219U 92076A 26071.27978302 .00000061 00000+0 56674-4 0 9992 2 22219 71.0639 12.6533 0018845 203.5025 156.5238 14.14093345718748 SL-16 R/B 1 22220U 92076B 26071.30972089 -.00000135 00000+0 -43230-4 0 9992 2 22220 71.0009 182.8551 0010475 91.5885 334.4302 14.16859250722203 COSMOS 2221 1 22236U 92080A 26071.04496161 .00002155 00000+0 18855-3 0 9993 2 22236 82.5012 276.8245 0014248 179.0275 181.0977 14.96210282781148 SL-16 R/B 1 22285U 92093B 26071.21295549 -.00000147 00000+0 -51046-4 0 9998 2 22285 71.0242 358.9692 0006382 291.0584 68.9856 14.15447267713517 COSMOS 2228 1 22286U 92094A 26071.26025915 .00003223 00000+0 27577-3 0 9990 2 22286 82.5159 234.8488 0016695 295.4142 64.5352 14.97205399776445 SL-16 R/B 1 22566U 93016B 26071.11227087 .00000002 00000+0 25548-4 0 9993 2 22566 71.0078 210.0926 0011996 310.9159 49.0924 14.15309273702518 COSMOS 2242 1 22626U 93024A 26071.04294597 .00001734 00000+0 14986-3 0 9997 2 22626 82.5156 264.4650 0015060 300.3132 59.6600 14.96558951780743 SL-16 R/B 1 22803U 93059B 26071.22957233 -.00000074 00000+0 -12772-4 0 9995 2 22803 70.9928 5.7700 0018395 212.8726 147.1255 14.17231332679896 ARIANE 40 R/B 1 22830U 93061H 26071.14264010 .00000249 00000+0 10704-3 0 9997 2 22830 98.4910 139.9818 0009573 276.9829 83.0267 14.32862525694456 COSMOS 2278 1 23087U 94023A 26071.28520759 .00000001 00000+0 25272-4 0 9994 2 23087 71.0552 169.6681 0008269 8.2431 351.8826 14.14379460645177 SL-16 R/B 1 23088U 94023B 26071.25981473 -.00000217 00000+0 -87434-4 0 9995 2 23088 70.9985 65.4888 0005695 283.1119 76.9368 14.15010961646452 SL-16 R/B 1 23343U 94074B 26071.09327160 .00000521 00000+0 76484-4 0 9993 2 23343 97.7107 101.8136 0005985 201.6293 220.7848 14.79410841687605 SL-16 R/B 1 23405U 94077B 26071.16978169 .00000105 00000+0 78284-4 0 9992 2 23405 70.9853 347.2721 0002954 208.8129 151.2831 14.15561637616580 ARIANE 40+ R/B 1 23561U 95021B 26071.17840723 .00000356 00000+0 12742-3 0 9994 2 23561 98.4492 142.6271 0007713 129.9656 284.6570 14.39774598619605 SL-16 R/B 1 23705U 95058B 26071.31823383 .00000330 00000+0 19282-3 0 9991 2 23705 71.0224 174.7370 0010680 120.9947 239.2227 14.15497201568225 SL-16 R/B 1 24298U 96051B 26071.29063821 .00000082 00000+0 71170-4 0 9992 2 24298 70.7603 169.7339 0014859 144.0731 216.1391 14.12416401522012 ORBVIEW 2 (SEASTAR) 1 24883U 97037A 26071.06656798 .00000330 00000+0 13096-3 0 9991 2 24883 98.8571 235.4414 0003038 67.2308 292.9197 14.35496758508811 SL-16 R/B 1 25400U 98043G 26071.25747800 .00000087 00000+0 55468-4 0 9990 2 25400 98.8256 24.6391 0010086 13.3324 346.8121 14.26050505439354 SL-16 R/B 1 25407U 98045B 26071.25723771 .00000286 00000+0 16833-3 0 9993 2 25407 71.0120 176.1748 0006901 4.3284 355.7897 14.16191353427463 ISS (ZARYA) 1 25544U 98067A 26071.15917150 .00009166 00000+0 17667-3 0 9996 2 25544 51.6325 60.1463 0007984 183.4136 176.6799 15.48595269556711 CZ-4B R/B 1 25732U 99025C 26071.13515924 .00000043 00000+0 41837-4 0 9993 2 25732 98.6622 115.3588 0036615 339.4833 84.3041 14.18265816388516 OKEAN-O 1 25860U 99039A 26071.15292594 .00000839 00000+0 11691-3 0 9994 2 25860 97.9437 131.0194 0001169 70.3123 289.8216 14.80339931434754 SL-16 R/B 1 25861U 99039B 26071.13046900 .00000627 00000+0 86309-4 0 9995 2 25861 97.9962 130.2237 0013577 247.2864 112.6914 14.81735121437225 DELTA 2 R/B 1 25876U 99041E 26070.91950208 .00001275 00000+0 24346-3 0 9996 2 25876 51.7626 292.3741 0502434 355.0068 4.5958 14.11844613363343 HELIOS 1B 1 25977U 99064A 26071.26967842 .00002398 00000+0 26956-3 0 9990 2 25977 98.1687 333.5885 0002441 71.6975 288.4506 14.87711208685643 TERRA 1 25994U 99068A 26071.24266375 .00000545 00000+0 12010-3 0 9992 2 25994 97.9589 124.5798 0002853 145.6884 240.8775 14.61017918395455 SL-16 R/B 1 26070U 00006B 26071.27331317 -.00000168 00000+0 -61085-4 0 9994 2 26070 71.0006 92.4046 0016627 186.4244 173.6669 14.15825399348928 TITAN 4B R/B 1 26474U 00047B 26071.28058707 .00005260 00000+0 32908-3 0 9994 2 26474 67.9902 33.2245 0038661 32.3719 327.9791 15.09592160393300 ENVISAT 1 27386U 02009A 26071.34415574 .00000173 00000+0 69832-4 0 9998 2 27386 98.3732 24.8784 0001308 83.1981 83.6770 14.39038145259550 IDEFIX & ARIANE 42P R/B 1 27422U 02021B 26071.29266030 .00000353 00000+0 15073-3 0 9995 2 27422 98.5870 9.8678 0011729 174.4851 185.6463 14.31028371244399 AQUA 1 27424U 02022A 26071.29392578 .00001314 00000+0 27191-3 0 9997 2 27424 98.4178 38.7063 0000573 90.7421 15.7037 14.61984497269118 CZ-4B R/B 1 27432U 02024C 26071.12256656 .00000045 00000+0 45916-4 0 9992 2 27432 98.8834 124.5169 0050364 17.3131 36.9194 14.14548047229588 MIDORI II (ADEOS-II) 1 27597U 02056A 26070.90384748 .00000364 00000+0 16071-3 0 9991 2 27597 98.7769 29.3966 0001508 40.3821 319.7472 14.29287029210612 H-2A R/B 1 27601U 02056E 26070.86961987 .00000303 00000+0 12062-3 0 9997 2 27601 98.3205 31.1522 0070632 154.2148 261.2108 14.33762249214426 CZ-4B R/B 1 28059U 03049C 26070.99669750 .00000431 00000+0 11035-3 0 9996 2 28059 98.6879 65.9919 0047333 223.7086 136.0358 14.55022487186931 CZ-2C R/B 1 28222U 04012C 26071.16728482 .00060823 00000+0 61962-3 0 9992 2 28222 97.7224 136.6945 0012921 299.2495 60.7471 15.64833079204667 SL-16 R/B 1 28353U 04021B 26070.86123671 -.00000265 00000+0 -11320-3 0 9991 2 28353 70.9996 227.9350 0004175 6.1397 353.9776 14.14597110123148 CZ-4B R/B 1 28415U 04035C 26071.33051586 .00008521 00000+0 29995-3 0 9991 2 28415 97.3502 105.5415 0030709 321.7707 38.1355 15.29114318180318 CZ-2C R/B 1 28480U 04046B 26071.29032510 .00000145 00000+0 68606-4 0 9993 2 28480 98.1981 346.1125 0140022 146.7804 214.2266 14.26993117108871 ARIANE 5 R/B 1 28499U 04049H 26071.19264994 .00000974 00000+0 11379-3 0 9992 2 28499 98.2631 239.7433 0083763 343.7925 16.0612 14.85271369146164 CZ-2D R/B 1 28738U 05024B 26071.01821709 .00043465 00000+0 52958-3 0 9996 2 28738 97.3600 86.2502 0005489 40.4701 319.6963 15.60374594140141 ALOS (DAICHI) 1 28931U 06002A 26071.29407543 .00001805 00000+0 31044-3 0 9999 2 28931 98.1220 27.2364 0000841 61.0446 299.0844 14.69820577 73864 H-2A R/B 1 28932U 06002B 26071.31455198 .00010707 00000+0 53493-3 0 9995 2 28932 98.2411 218.5640 0051932 231.9791 127.6746 15.16483920 94835 RESURS-DK 1 1 29228U 06021A 26071.18040981 .00003892 00000+0 22745-3 0 9993 2 29228 69.9325 230.5792 0001644 160.8628 199.2600 15.12764715 87903 CZ-4B R/B 1 29507U 06046C 26071.11588416 .00004686 00000+0 23816-3 0 9995 2 29507 97.5596 116.0188 0031679 258.4841 101.2834 15.16932678 60417 CZ-2C R/B 1 31114U 07010B 26071.26209868 .00000171 00000+0 97995-4 0 9996 2 31114 98.3979 184.4117 0057871 286.9714 72.5126 14.20247341980084 COSMO-SKYMED 1 1 31598U 07023A 26071.27208691 .00004403 00000+0 39215-3 0 9992 2 31598 97.8879 262.3244 0001481 97.9849 262.1540 14.96558699 15298 COSMOS 2428 1 31792U 07029A 26071.29572732 .00000032 00000+0 42639-4 0 9995 2 31792 70.9436 197.8732 0009213 274.4850 85.5219 14.12946675964469 SL-16 R/B 1 31793U 07029B 26071.32021113 .00000155 00000+0 10490-3 0 9997 2 31793 70.9758 166.8558 0002266 275.9418 141.1099 14.14834186965748 KORONAS-FOTON 1 33504U 09003A 26071.03357247 .00009856 00000+0 21956-3 0 9997 2 33504 82.4278 273.4409 0011397 141.8970 218.3085 15.43371632946100 CZ-2C R/B 1 37731U 11030B 26071.33293460 .00002127 00000+0 27363-3 0 9997 2 37731 97.8542 28.5429 0052151 343.4508 178.4248 14.81234954790482 H-2A R/B 1 38341U 12025E 26070.87009374 .00003519 00000+0 32069-3 0 9992 2 38341 98.4739 38.0911 0043203 307.1184 52.6090 14.95189354748548 SHIJIAN-16 (SJ-16) 1 39358U 13057A 26071.31058192 .00003049 00000+0 30013-3 0 9994 2 39358 74.9729 180.1267 0015453 105.6502 254.6393 14.92361141671895 SL-4 R/B 1 39679U 14021B 26070.96624170 .00015383 00000+0 33848-3 0 9990 2 39679 51.6083 326.1718 0097301 111.2955 249.8451 15.39266038656622 ALOS-2 1 39766U 14029A 26071.28880078 .00003168 00000+0 43048-3 0 9993 2 39766 97.9185 169.8479 0001471 96.9587 263.1792 14.79517919637259 YAOGAN-29 1 41038U 15069A 26071.29094569 .00000683 00000+0 90768-4 0 9997 2 41038 98.0144 99.7277 0001720 31.5860 328.5456 14.82998618556261 ASTRO-H (HITOMI) 1 41337U 16012A 26070.94768426 .00003441 00000+0 20065-3 0 9996 2 41337 31.0006 341.9769 0009757 353.9535 6.0985 15.10023348552579 HXMT (HUIYAN) 1 42758U 17034A 26071.27885994 .00007594 00000+0 37814-3 0 9999 2 42758 43.0160 2.2782 0033170 251.7462 107.9775 15.17507493482938 SAOCOM 1A 1 43641U 18076A 26071.25837492 .00000720 00000+0 97003-4 0 9997 2 43641 97.8898 259.3941 0001426 88.7129 271.4248 14.82142000401746 H-2A R/B 1 43682U 18084L 26071.13474591 .00021414 00000+0 50752-3 0 9997 2 43682 98.8733 289.0453 0025225 17.0298 343.1785 15.41463122406153 SAOCOM 1B 1 46265U 20059A 26071.28962287 .00000815 00000+0 10893-3 0 9996 2 46265 97.8898 258.5226 0001420 86.3895 273.7481 14.82151949299130 CSS (TIANHE) 1 48274U 21035A 26071.21114556 .00026987 00000+0 31717-3 0 9990 2 48274 41.4662 192.8178 0006768 286.7169 73.2927 15.60804947278003 COSMOS 2550 1 48865U 21056A 26071.32125340 -.00000190 00000+0 52004-7 0 9999 2 48865 67.1461 32.9714 0008370 269.5659 90.4536 15.33837480263868 CZ-2C R/B 1 52794U 22058K 26071.21243916 .00034325 00000+0 49772-3 0 9996 2 52794 50.1892 305.3108 0042110 211.4951 148.3498 15.54430524210525 CZ-2C R/B 1 54039U 22132E 26070.99833859 .00045731 00000+0 51693-3 0 9996 2 54039 97.2966 74.3851 0020440 83.8448 276.5138 15.62072161190738 GSLV R/B 1 54149U 22138AN 26071.26132063 .00004231 00000+0 36539-3 0 9996 2 54149 87.3873 165.5013 0023261 137.9057 222.3967 14.96795723184319 XRISM 1 57800U 23137A 26071.21604297 .00005595 00000+0 31635-3 0 9997 2 57800 31.0012 267.3229 0007900 64.2433 295.9020 15.11531804138174 ACS3 1 59588U 24077B 26071.30600486 .00032954 00000+0 26351-1 0 9998 2 59588 97.2054 11.8295 0061653 70.1577 290.6219 13.89760412 94562 SZ-21 MODULE 1 66515U 25246C 26070.66510517 .00042405 00000+0 36183-3 0 9996 2 66515 41.4734 191.1990 0001230 305.0978 54.9749 15.68721611 18382